Tracking 28518 objects as of 2-Mar-2024
HD Live streaming from Space Station
objects crossing your sky now

CIRBE

Track CIRBE now!
10-day predictions
CIRBE is classified as:


NORAD ID: 56188
Int'l Code: 2023-054L
Perigee: 452.6 km
Apogee: 461.6 km
Inclination: 97.4 °
Period: 93.6 minutes
Semi major axis: 6828 km
RCS: Unknown
Launch date: April 15, 2023
Source: United States (US)
Launch site: AIR FORCE WESTERN TEST RANGE (AFWTR)

Uplink (MHz):
Downlink (MHz): 437.250/2402.000
Beacon (MHz):
Mode: 9k6/19k2 GFSK
Call sign: CIRBE
Status: Active

Your satellite tracking list
Your tracking list is empty




NASA's NSSDC Master Catalog

Two Line Element Set (TLE):
1 56188U 23054L   24061.46064223  .00039573  00000-0  10322-2 0  9999
2 56188  97.3751 319.8164 0006631 167.0842 193.0575 15.38703099 49657
Source of the keplerian elements: AFSPC